TITAN 3C TRANSTAGE DEB, 1833

Orbit data source: Space-Track

TITAN 3C TRANSTAGE DEB, 1833 is space debris in LEO originally from a launch on Fri, 15 Oct 1965 UTC launched from the Air Force Eastern Test Range (AFETR). Debris objects in space refer to the collection of defunct objects orbiting the Earth. Examples of debris include non-operational satellites, rocket bodies, and fragments generated from explosions, collisions, or faulty payload assembly.

Loading next visibility...
Identifier
1833, 1965-082DY
Orbit
LEO
Country
Flag of USUS
Related business
Manufacturer
Unknown
Mission
Spacecraft
Bus & Motor
Unknown
Mass
Unknown
Launch date (UTC)
1965-10-15 (61 years ago)
Launch vehicle
Unknown
Launch site
Air Force Eastern Test Range (AFETR)
Object type
Payload
Rocket body
Debris
Shape & HBR
Unknown shape, 0.2 m
Radar Cross Section
Medium (>0.1 m² and <1 m²)

Expand to show TLE details & history
Last TLE update: 2 days ago

TLE from 2 days ago
0 TITAN 3C TRANSTAGE DEB
1 01833U 65082DY  26161.92618561  .00002006  00000-0  28433-3 0  9991
2 01833  32.2266 241.4498 0058225  74.0421 286.6634 14.74238680169026
Epoch: 2026-06-10T22:13Z
TLE epoch observation values (Epoch: 2026-06-10T22:13:42.436Z)
Latitude
-0.00006°
Longitude
8.74557°
Altitude
634.713 km
Speed
7.549 km/s
True Right ascension
16h 05m 47s
True Declination
0° 00' 00"
Sunlit
Object was in full shadow at epoch
Visualization orbit readout
Latitude
Unknown
Longitude
Unknown
Altitude
Unknown
Speed
Unknown
Apparent Right ascension
Unknown
Apparent Declination
Unknown
Sunlit
N/A
Visualization observer readout
Local Sidereal Time
20:24:49
Azimuth
Unknown
Elevation
Unknown
Doppler factor
Unknown
Orbital elements
Apogee altitude
692.098 km
Perigee altitude
610.241 km
Semi-major axis
7,029.307 km
Eccentricity
0.00582
Inclination
32.2266°
RAAN
241.4498°
Arg. of periapsis
74.0421°
True anomaly
286.02289°
Mean anomaly
286.6634°
Eccentric anomaly
286.34328°
Mean motion
3.68277 °/min
Orbital period
97.75 mins
BSTAR
0.00028433

Documentation

Showing up to 5 results
|